2025-007C

Last updated on Tue Jan 14 2025 00:02:05 GMT+0000 (Coordinated Universal Time)

1 62577U 25007C 25013.45860977 -.00000211 00000+0 00000+0 0 9991 2 62577 54.9815 126.8701 0012676 296.2921 155.9901 14.75569230 45
UTC large
Height (km)
Speed (km/s)
/
Latitude / Longitude
Inclination (degrees)
Orbital Period (minutes)
Azimuth
Elevation
Range (km)
Doppler Factor

Next 0 passes for location: London (51.5072 / 0.1276)

Sorry there are no passes over London.